STARLINK-11270, 60999

Orbit data source: Space-Track

STARLINK-11270, 60999 is a payload satellite owned by SpaceX/Seattle (US) in LEO that was launched on Thu, 05 Sep 2024 UTC via an FALCON 9 launch vehicle from the Air Force Eastern Test Range (AFETR). Payload-class satellites include a variety of spacecraft equipped with specific instruments for various scientific and technological missions. These include communications satellites like Starlink; space stations such as the ISS; scientific satellites like the Hubble; Earth observation satellites from companies like Planet Labs, Umbra, and HawkEye 360; GPS; miniature CubeSats for education and research; and military/defense satellites.

Loading next visibility...
Identifier
60999, 2024-158K
Orbit
LEO
Last TLE update
8 hours ago
Origin
Manufacturer
SpaceX/Seattle
Mission
Operational Commercial Communications
Bus & Motor
STARLINK V2M, Unknown motor
Mass
730 kg wet, ~700 kg dry
Launch date (UTC)
2024-09-05 (10 months ago)
Launch vehicle
FALCON 9
Launch site
Air Force Eastern Test Range (AFETR)
Object type
Payload
Rocket body
Debris
Shape & HBR
Box + 2 Pan, 29 m
Radar Cross Section
36.964 m², Large (>1 m²)

Expand to show TLE details & history

TLE from 8 hours ago
0 STARLINK-11270
1 60999U 24158K   25189.00839490 -.00000858  00000-0 -22293-5 0  9997
2 60999  53.1596  47.5319 0000690 112.2964 247.8127 15.69704818 49174
Epoch: 2025-07-08T00:12Z
TLE epoch observation values (Epoch: 2025-07-08T00:12:05.319Z)
Latitude
-0.00002°
Longitude
118.30017°
Altitude
360.832 km
Speed
7.694 km/s
True Right ascension
03h 10m 07s
True Declination
0° 00' 00"
Sunlit
Object was in daylight at epoch
Visualization orbit readout
Latitude
10.83737°
Longitude
-71.61398°
Altitude
359.616 km
Speed
7.696 km/s
Apparent Right ascension
12h 07m 20s
Apparent Declination
-18° 33' 53"
Sunlit
Object is in daylight
Visualization observer readout
Local Sidereal Time
20:38:35
Azimuth
279.755° WNW
Elevation
-40.547°
Doppler factor
1
Orbital elements
Apogee altitude
360.467 km
Perigee altitude
359.537 km
Semi-major axis
6,738.139 km
Eccentricity
0.00007
Inclination
53.1596°
RAAN
47.5319°
Arg. of periapsis
112.2964°
True anomaly
Unknown
Mean anomaly
247.8127°
Eccentric anomaly
Unknown
Mean motion
3.92404 °/min
Orbital period
91.74 mins
BSTAR
-0.0000022293
Loading maneuver chart data...
Loading SW <> Apogee altitude chart data...
Loading historical data...
Loading historical data...
Loading historical data...
Loading historical data...
Loading historical data...
Loading historical data...
Loading historical data...

STARLINK-11270 Visibility forecast

Observer location: undefined°, undefined°

Span
Click to sort rows by Start time (UTC) header in descending order
Start Az.
Max El. time (UTC)
Max El. Az.
Max El.
End time (UTC)
End Az.
4 mins2025-07-08 17:11:51.379Z218.095° SW2025-07-08 17:13:51.379Z123.97° SE42.742°2025-07-08 17:15:51.379Z56.964° ENE
4 mins2025-07-08 23:36:51.379Z333.753° NNW2025-07-08 23:38:51.379Z59.036° ENE32.149°2025-07-08 23:40:51.379Z105.672° ESE
|